www.pogodaiklimat.ru
ПОГОДА в Умпханге
Время
(UTC), дата
03 10.10
06 10.10
09 10.10
12 10.10
15 10.10
18 10.10
21 10.10
00 11.10
03 11.10
06 11.10
09 11.10
12 11.10
15 11.10
18 11.10
21 11.10
00 12.10
03 12.10
06 12.10
09 12.10
12 12.10
15 12.10
18 12.10
21 12.10
00 13.10
03 13.10
06 13.10
09 13.10
12 13.10
15 13.10
18 13.10
21 13.10
00 14.10
03 14.10
06 14.10
09 14.10
12 14.10
15 14.10
18 14.10
21 14.10
00 15.10
03 15.10
06 15.10
09 15.10
12 15.10
15 15.10
18 15.10
21 15.10
00 16.10
03 16.10
06 16.10
09 16.10
12 16.10
15 16.10
18 16.10
21 16.10
Ветер
(напр.,м/с)
Видим. Явления Облачность Т
(С)
Тd
(С)
f
(%)
Тe
(С)
Тes
(С)
Комфортность P
(гПа)
Po
(гПа)
Тmin
(С)
Tmax
(С)
R
(мм)
R24
(мм)
S
(см)
штиль 0 10 км дымка {туман} 10/4 600 м
[Sc Ac As Cs]
+27.0 +21.6 72 +34 +39 очень
душно
1015.2 963.7
штиль 0 11 км {туман} 8/4 600 м
[Sc Ac und Cs]
+30.8 +20.6 55 +38 +48 очень
душно
1010.5 960.0
штиль 0 11 км 8/4 600 м
[Sc Ac As Cs]
+31.0 +22.4 60 +40 +43 очень
душно
1005.5 955.2
штиль 0 6000 м гроза, ливневой дождь 10/4 600 м
[Cb cap Ac As Cs]
+23.2 +21.7 91 +31 +31 очень
душно
1011.8 960.0 +33.2 38
штиль 0 <100 м дымка {гроза} 10/4 600 м
[Sc Ac As Cs]
+22.0 +20.8 93 +28 +28 душно 1013.1 961.0 7
штиль 0 5000 м дымка {гроза} 10/4 600 м
[Sc Ac As Cs]
+21.1 +19.8 92 +26 +26 душно 1012.2 959.9 45
штиль 0 5000 м дымка 10/4 600 м
[Sc Ac As Cs]
+21.0 +19.4 91 +25 +25 комфорт 1011.7 959.4
штиль 0 7000 м дымка 8/4 600 м
[Sc Ac und Cs]
+21.0 +20.2 95 +26 +26 душно 1013.8 961.4 +20.8
штиль 0 11 км 5/3 600 м
[Cu med, cong Ac lent Cs]
+25.2 +21.3 79 +32 +41 очень
душно
1013.7 962.1
штиль 0 11 км 3/1 600 м
[Cu hum Ci fib]
+30.5 +22.1 61 +39 +60 опасность
солнечного
удара
1009.9 959.3
штиль 0 10 км 10/4 600 м
[Cb cap Ac cuf Ci ing]
+29.0 +23.2 71 +39 +41 очень
душно
1008.2 957.4
штиль 0 6000 м в посл. час дождь 10/4 600 м
[Cb cap Ac cuf Ci ing]
+24.2 +22.1 88 +31 +31 очень
душно
1010.7 959.1 +32.0 9
штиль 0 7000 м дымка 10/4 600 м
[Sc Ac As Cs]
+23.2 +21.7 91 +31 +31 очень
душно
1012.4 960.5
штиль 0 6000 м дымка 8/4 600 м
[Sc Ac und Cs]
+22.8 +21.6 93 +30 +30 очень
душно
1012.4 960.4
штиль 0 6000 м дымка 5/3 600 м
[Sc Ac lent Cs]
+21.5 +20.3 93 +27 +27 душно 1011.2 959.1
штиль 0 7000 м дымка 1/0
[Ci fib]
+21.1 +19.7 92 +26 +26 душно 1011.0 958.8 +19.5
штиль 0 10 км 3/3 600 м
[Cu med, cong]
+27.8 +22.2 72 +36 +47 очень
душно
1010.9 959.8
штиль 0 11 км 3/3 600 м
[Cu med, cong]
+30.7 +22.5 62 +40 +57 опасность
солнечного
удара
1007.6 957.2
штиль 0 10 км 8/4 600 м
[Sc Ac As Cs]
+28.7 +21.7 66 +37 +40 очень
душно
1004.9 954.3
штиль 0 8000 м в посл. час гроза {дождь} 8/4 600 м
[Sc Ac und Cs]
+23.2 +22.1 94 +32 +32 очень
душно
1009.4 957.6 +32.0 15
штиль 0 6000 м дымка 8/4 600 м
[Sc Ac und Cs]
+21.8 +19.9 89 +27 +27 душно 1010.6 958.6
штиль 0 6000 м дымка 6/4 600 м
[Sc Ac und Cs]
+22.5 +21.0 91 +29 +29 очень
душно
1012.0 960.0
штиль 0 5000 м дымка 6/4 600 м
[Sc Ac und Cs]
+21.5 +20.3 93 +27 +27 душно 1010.2 958.1
штиль 0 100 м туман ?/? +21.2 +20.4 95 +26 +26 душно 1012.4 960.1 +20.6
штиль 0 9000 м дымка {туман} 8/4 600 м
[Sc Ac und Cs]
+25.2 +22.8 87 +33 +40 очень
душно
1013.6 961.9
штиль 0 11 км {туман} 8/4 600 м
[Sc Ac und Cs]
+30.0 +22.4 64 +39 +49 очень
душно
1008.8 958.2
штиль 0 8000 м слаб. дождь 10/4 600 м
[Cb cap Ac cuf Ci ing]
+26.0 +22.7 82 +34 +37 очень
душно
1008.3 957.1 10
штиль 0 8000 м дымка {дождь} 5/3 600 м
[Cb calv Ac und Ci ing]
+24.2 +22.4 90 +32 +32 очень
душно
1010.9 959.2 +31.5 10
штиль 0 7000 м дымка 5/3 600 м
[Cu med, cong Ac lent Cs]
+25.2 +21.9 82 +32 +32 очень
душно
1012.6 961.0
штиль 0 6000 м дымка 5/3 600 м
[Sc Ac lent Cs]
+22.8 +21.6 93 +30 +30 очень
душно
1012.9 960.9
штиль 0 5000 м гроза без осадков 10/4 600 м
[Cb cap Ac cuf Ci ing]
+22.8 +21.6 93 +30 +30 очень
душно
1012.9 960.9
штиль 0 7000 м в посл. час дождь {гроза} 10/4 600 м
[Sc Ac As Cs]
+22.5 +21.0 91 +29 +30 очень
душно
1012.1 960.1 +20.3 18
штиль 0 11 км 3/3 600 м
[Cu med, cong]
+25.3 +22.9 87 +34 +44 очень
душно
1013.5 961.9
штиль 0 11 км 3/3 600 м
[Cu med, cong]
+30.2 +22.1 62 +39 +55 опасность
солнечного
удара
1008.5 958.0
штиль 0 11 км 3/3 600 м
[Cu med, cong]
+28.9 +22.1 67 +38 +43 очень
душно
1006.3 955.6
штиль 0 8000 м дымка 3/3 600 м
[Cu med, cong]
+26.2 +21.7 76 +34 +34 очень
душно
1011.2 959.8 +32.1
штиль 0 6000 м дымка 3/3 600 м
[Cu med, cong]
+25.1 +22.1 83 +32 +32 очень
душно
1012.6 961.0
штиль 0 5000 м дымка 3/3 600 м
[Cu med, cong]
+22.7 +21.6 94 +30 +30 очень
душно
1012.7 960.7
штиль 0 5000 м дымка 3/3 600 м
[Cu med, cong]
+22.5 +21.7 95 +30 +30 очень
душно
1011.5 959.5
штиль 0 100 м туман ?/? +19.2 +18.4 95 +21 +21 комфорт 1015.6 962.8 +18.8
штиль 0 9000 м дымка {туман} 5/3 600 м
[Sc Ac lent Cs]
+24.0 +20.5 81 +30 +39 очень
душно
1015.8 963.8
штиль 0 11 км {туман} 3/1 600 м
[Cu hum Ci fib]
+29.2 +20.1 58 +36 +56 опасность
солнечного
удара
1011.6 960.7
В 5 10 км 3/1 600 м
[Cu med, cong Ci fib]
+31.0 +20.1 52 +37 +40 очень
душно
1010.6 960.1
штиль 0 8000 м дымка 1/1 600 м
[Cu hum]
+25.0 +21.7 82 +32 +32 очень
душно
1012.1 960.5 +31.7
штиль 0 7000 м дымка 5/3 600 м
[Cu med, cong Ac lent Cs]
+22.5 +20.5 88 +29 +29 очень
душно
1015.5 963.3
штиль 0 6000 м дымка 8/4 600 м
[Cb cap Ac cuf Ci ing]
+22.0 +20.8 93 +28 +28 душно 1014.5 962.3
штиль 0 5000 м дымка 8/4 600 м
[Sc Ac und Cs]
+22.0 +21.1 95 +28 +28 душно 1013.3 961.2
штиль 0 7000 м дымка 1/0
[Ci fib]
+21.8 +20.6 93 +28 +28 душно 1013.5 961.3 +20.4
штиль 0 10 км 8/4 600 м
[Sc Ac und Cs]
+24.8 +22.1 85 +32 +38 очень
душно
1013.7 961.9
штиль 0 11 км 8/4 600 м
[Sc Ac und Cs]
+28.8 +20.5 61 +36 +45 очень
душно
1011.3 960.4
штиль 0 11 км 8/4 600 м
[Sc Ac und Cs]
+31.0 +20.5 54 +38 +41 очень
душно
1010.3 959.8
штиль 0 9000 м дымка ясно +25.0 +22.0 83 +32 +32 очень
душно
1010.6 959.0 +29.8
штиль 0 7000 м дымка ясно +23.2 +20.6 85 +31 +31 очень
душно
1015.2 963.1
штиль 0 <100 м дымка ясно +22.2 +20.8 92 +29 +29 очень
душно
1013.3 961.2
штиль 0 6000 м дымка ясно +22.0 +20.5 91 +28 +28 душно 1011.8 959.7
Местоположение метеостанции Умпханг (Таиланд): широта 16.02 долгота 98.87 высота над уровнем моря 457 м.
В архиве по умолчанию представлена погода в Умпханге за последнюю неделю. Архивные данные за месяц целиком и за предыдущие месяцы, начиная с января 2011 года, Вы можете получить, выбрав интересующий диапазон дат из раскрывающегося списка и нажав кнопку "Найти!".
*Определитесь, кто Вы:
Внимание! Время в таблицах - всемирное. Для получения местного времени необходимо прибавить поправку, которая равна 7 ч.
Смотрите также архив погоды в соседних городах и на ближайших метеорологических станциях:
Партнеры нашего сайта:      
Пояснения к столбцам:
  • Ветер - указаны скорость ветра в м/с - средняя за 10 мин, порывы в срок и между сроками (в фигурных скобках) и направление, откуда дует ветер: С - северный,
  • СВ - северо-восточный, В - восточный, ЮВ - юго-восточный, Ю - южный, ЮЗ - юго-западный, З - западный, СЗ - северо-западный.
  • Видимость - горизонтальная дальность видимости в метрах или километрах. При видимости от 1 до 10 км при отсутствии осадков обычно наблюдается дымка, при ухудшении видимости до 1 км и менее - туман. В сухую погоду видимость может ухудшаться дымом, пылью или мглою.
  • Явления - указаны атмосферные явления, наблюдавшиеся в срок или в последний час перед сроком; фигурными скобками обозначены явления, наблюдавшиеся между сроками (за 1-3 часа до срока); квадратными скобками обозначены град или гололедные отложения с указанием их диаметра в мм.
  • Облачность - указаны через наклонную черту общая и нижняя облачность в баллах и высота нижней границы облаков в метрах; квадратными скобками обозначены формы облаков: Ci - перистые, Cs - перисто-слоистые, Cc - перисто-кучевые, Ac - высококучевые, As - высокослоистые, Sc - слоисто-кучевые, Ns - слоисто-дождевые, Cu - кучевые, Cb - кучево-дождевые. Подробнее классификацию облаков см. в Атласе облаков (PDF).
  • T - Температура воздуха - температура, измеренная на высоте 2 м над землей.
  • Td - Температура точки росы - температура, при понижении до которой содержащийся в воздухе водяной пар достигнет насыщения.
  • f - Относительная влажность воздуха - влажноcть воздуха, измеренная на высоте 2 м над землей.
  • Te - Эффективная температура - температура, которую ощущает одетый по сезону человек в тени. Характеристика душности погоды. При расчете учитывается влияние влажности воздуха и скорости ветра на теплоощущения человека.
  • Tes - Эффективная температура на солнце - температура, которую ощущает человек, с поправкой на солнечный нагрев. Характеристика знойности погоды. Зависит от высоты солнца над горизонтом, облачности и скорости ветра. Ночью, в пасмурную погоду, а также при ветре 12 м/с и более поправка равна нулю.
  • P - Атмосферное давление - приведенное к уровню моря атмосферное давление.
  • Po - Атмосферное давление - измеренное на уровне метеостанции атмосферное давление.
  • Tmin - Минимальная температура - минимум температуры воздуха на высоте 2 м над землей.
  • Tmax - Максимальная температура - максимум температуры воздуха на высоте 2 м над землей.
  • R - Количество осадков - Количество выпавших осадков за период времени, мм. При наведении курсора мыши на число - период времени, за который выпало указанное количество осадков.
  • R24 - Количество осадков - Количество выпавших осадков за 24 часа, мм.
  • S - Снежный покров - Высота снежного покрова, см. При наведении курсора мыши на число - состояние снежного покрова и степень покрытия местности в баллах.